Flag for Switzerland Weather past 2 weeks in Biel, Switzerland

Now
38 °F

Chilly.


Feels Like: 35 °F
Forecast: 31 / 40 °F
Wind: 5 mph from Southwest

Location: Grenchen

Current Time: Mar 4, 2015 at 10:26:10 AM

Latest Report: Mar 4, 2015 at 9:00 AM


Visibility: N/A

Pressure: 30.38 "Hg

Humidity: 86%

Dew point: 34 °F

Location of BielLocation

Historic Weather in Biel — Graph

°F

Biel temperature yesterday

Maximum temperature yesterday: 51 °F (at 4:00 PM)
Minimum temperature yesterday: 33 °F (at 7:00 AM)
Average temperature yesterday: 42 °F

Past Weeks' High & Low Weather Summary

 TemperatureHumidityPressure
High51 °F (Mar 3, 4:00 PM)100% (Feb 17, 10:00 AM)30.75 "Hg (Feb 17, 10:00 AM)
Low25 °F (Feb 20, 6:00 AM)43% (Feb 26, 4:00 PM)29.63 "Hg (Feb 21, 9:00 AM)
Average37 °F86%30.12 "Hg
* Reported Feb 17 9:00 AM — Mar 4 9:00 AM, Biel, Weather by CustomWeather, © 2015

Note: Actual official high and low records may vary slightly from our data, if they occured in-between our weather recording intervals... More about our weather records

Advertising

Biel weather history for previous 24 hours

 ConditionsComfort  
Time TempWeatherWind HumidityBarometerVisibility
9:00 AM
Wed, Mar 4
38 °FChilly.5 mph86%30.38 "HgN/A
8:00 AM39 °FChilly.3 mph70%30.36 "HgN/A
7:00 AM38 °FChilly.6 mph72%30.34 "HgN/A
6:00 AM39 °FChilly.8 mph70%30.34 "HgN/A
5:00 AM39 °FChilly.9 mph69%30.31 "HgN/A
4:00 AM40 °FChilly.8 mph72%30.29 "HgN/A
3:00 AM42 °FQuite cool.10 mph85%30.28 "HgN/A
2:00 AM42 °FQuite cool.7 mph92%30.28 "HgN/A
1:00 AM43 °FQuite cool.18 mph81%30.27 "HgN/A
12:00 AM44 °FQuite cool.7 mph66%30.25 "HgN/A
11:00 PM
Tue, Mar 3
44 °FQuite cool.5 mph63%30.24 "HgN/A
10:00 PM43 °FQuite cool.3 mph66%30.24 "HgN/A
9:00 PM43 °FQuite cool.2 mph73%30.24 "HgN/A
8:00 PM44 °FQuite cool.2 mph64%30.23 "HgN/A
7:00 PM46 °FCool.6 mph59%30.21 "HgN/A
6:00 PM47 °FCool.6 mph65%30.20 "HgN/A
5:00 PM50 °FCool.13 mph49%30.19 "HgN/A
4:00 PM51 °FCool.12 mph53%30.19 "HgN/A
3:00 PM51 °FCool.13 mph59%30.20 "HgN/A
2:00 PM49 °FCool.8 mph60%30.22 "HgN/A
1:00 PM48 °FCool.8 mph61%30.24 "HgN/A
12:00 PM46 °FCool.3 mph60%30.27 "HgN/A
11:00 AM45 °FQuite cool.1 mph63%30.28 "HgN/A
10:00 AM42 °FQuite cool.1 mph67%30.29 "HgN/A
Weather by CustomWeather, © 2015

See weather overviewHow to use our weather pages